Regional Weather Roundup
Issued by NWS

Home | Current Version | Previous Version | Graphics & Text | Print | Product List | Glossary On
Versions: 1 2 3 4 5 6 7 8 9 10 11 12 13 14 15 16 17 18 19 20 21 22 23 24 25 26 27 28 29 30 31 32 33 34 35 36 37 38 39 40 41 42 43 44 45 46 47 48 49 50
008
ASUS43 KMKX 250800
RWRWI

WISCONSIN REGIONAL WEATHER ROUNDUP
NATIONAL WEATHER SERVICE MILWAUKEE/SULLIVAN WI
200 AM CST SAT FEB 25 2017

NOTE: "FAIR" INDICATES FEW OR NO CLOUDS BELOW 12,000 FEET WITH NO
SIGNIFICANT WEATHER AND/OR OBSTRUCTIONS TO VISIBILITY.

WIZ001-002-006>008-014>016-023>028-250900-
NORTHWEST WISCONSIN

CITY           SKY/WX    TMP DP  RH WIND       PRES   REMARKS
SUPERIOR ARPT  CLEAR     15   5  63 N13G21    29.87F WCI   1
ASHLAND        CLOUDY    17   7  64 NW13G23   29.78F WCI   4
HAYWARD        CLOUDY    16   4  59 NW9       29.77S WCI   4
SIREN          MOCLDY    16   5  63 N12       29.85F WCI   3
CUMBERLAND     CLEAR     16   5  62 N16G29    29.79S WCI   0
RICE LAKE      CLEAR     16   5  61 CALM      29.81S
CHETEK         CLEAR     15   6  66 NW8G18    29.79S WCI   4
LADYSMITH      CLOUDY    17   8  66 NW13G23   29.75S WCI   4
EAU CLAIRE     NOT AVBL
MENOMONIE      CLEAR     18   6  58 NW17      29.81S WCI   3
NEW RICHMOND   MOCLDY    18   8  63 NW17G23   29.85S WCI   3
OSCEOLA        PTCLDY    18   7  63 NW12G17   29.90S WCI   5
$$

WIZ003>005-009-010-017-018-250900-
NORTH CENTRAL WISCONSIN

CITY           SKY/WX    TMP DP  RH WIND       PRES   REMARKS
MANITOWISH WTR LGT SNOW  14  13  94 N7        29.63F WCI   4
ARBOR VITAE    LGT SNOW  17  12  82 N13         N/A  WCI   3
WOODRUFF       LGT SNOW  17  12  82 N13         N/A  WCI   3
RHINELANDER    LGT SNOW  16  11  80 NW10      29.60F WCI   4
EAGLE RIVER    FLURRIES  15  10  79 N12       29.59F WCI   2
LAND O LAKES   LGT SNOW  16  11  83 N14       29.61F WCI   1
PHILLIPS       LGT SNOW  14  11  87 NW7       29.67F WCI   4
TOMAHAWK       LGT SNOW  15  11  83 NW9G17    29.64F WCI   4
MEDFORD        LGT SNOW  15  10  82 NW15G21   29.65F WCI  -1
MERRILL        NOT AVBL
$$

WIZ029-030-035-036-043>047-250900-
CENTRAL WISCONSIN

CITY           SKY/WX    TMP DP  RH WIND       PRES   REMARKS
WAUSAU         CLOUDY    18  11  74 NW14G20   29.62S WCI   4
MOSINEE        CLOUDY    18  14  86 NW15G22   29.64S WCI   3
MARSHFIELD     LGT SNOW  16  11  80 NW18      29.66S WCI   0
STEVENS POINT  LGT SNOW  17  13  86 NW8       29.64S WCI   6
WAUPACA        LGT SNOW  22  18  83 NW8       29.63S WCI  13
WAUTOMA        LGT SNOW  19  16  88 NW12      29.65S FOG     WCI   7
WISC RAPIDS    LGT SNOW  18  15  88 NW10      29.67S FOG     WCI   6
CAMP DOUGLAS   NOT AVBL
$$

WIZ011>013-019>022-031-037>040-048>050-250900-
NORTHEAST WISCONSIN

CITY           SKY/WX    TMP DP  RH WIND       PRES   REMARKS
ANTIGO         FLURRIES  16  11  82 N16       29.58S WCI   1
SHAWANO        LGT SNOW  22  18  83 CALM      29.59S
OCONTO         CLOUDY    21  16  81 NW10      29.56S WCI  10
STURGEON BAY   FLURRIES  22  20  92 MISG      29.53S
GREEN BAY      FLURRIES  22  18  85 NW16      29.57F WCI   8
MANITOWOC      LGT SNOW  23  19  86 NW15      29.55F FOG     WCI  10
APPLETON       LGT SNOW  21  18  86 NW8       29.58S WCI  12
CLINTONVILLE   LGT SNOW  21  18  86 NW8       29.61S WCI  12
OSHKOSH        LGT SNOW  20  17  88 NW12      29.59F FOG     WCI   8
$$

WIZ032>034-041-042-053>061-250900-
SOUTHWEST WISCONSIN

CITY           SKY/WX    TMP DP  RH WIND       PRES   REMARKS
LA CROSSE      LGT SNOW  22  15  75 NW18      29.79F WCI   7
SPARTA         LGT SNOW  18  15  85 NW10G18   29.77R WCI   7
VIROQUA        CLOUDY    17  14  87 NW14      29.73R WCI   3
BOSCOBEL       LGT SNOW  21  15  78 NW15G22   29.77R WCI   8
PRAIRIE DU CHI LGT SNOW  20  15  79 NW13G20   29.79S WCI   8
PLATTEVILLE    CLOUDY    19  19  96 NW8       29.73R WCI   9
$$

WIZ056-057-062-063-064-067-068-250900-
SOUTH CENTRAL WISCONSIN

CITY           SKY/WX    TMP DP  RH WIND       PRES   REMARKS
REEDSBURG      LGT SNOW  18  16  93 NW8       29.69S WCI   7
BARABOO/DELLS  LGT SNOW  18  15  88 NW8       29.67S VSB 1   WCI   8
LONE ROCK      NOT AVBL
MINERAL POINT  LGT SNOW  21  19  93 NW3       29.69S
MADISON        LGT SNOW  21  18  88 NW8       29.65F FOG     WCI  11
MIDDLETON      CLOUDY    23  20  91 NW6       29.67S WCI  15
WATERTOWN      LGT SNOW  22  21  98 NW12      29.62S WCI  10
MONROE         LGT SNOW  23  19  86 NW15G23   29.66R WCI  10
JANESVILLE     LGT SNOW  27  25  93 NW8       29.64S WCI  18
$$

WIZ051-052-058>065-066-070>072-250900-
SOUTHEAST WISCONSIN

CITY           SKY/WX    TMP DP  RH WIND       PRES   REMARKS
MILWAUKEE      FLURRIES  27  21  78 NW14      29.58S WCI  16
WAUKESHA       LGT SNOW  23  19  86 NW17      29.60S WCI   9
MILWAUKEE/TIMM LGT SNOW  25  21  86 W10       29.60S WCI  15
RACINE         LGT SNOW  27  23  85 NW13      29.60S FOG     WCI  16
KENOSHA        LGT SNOW  28  23  81 W12       29.59S WCI  18
FOND DU LAC    LGT SNOW  21  16  81 NW13      29.60S WCI   9
SHEBOYGAN      LGT SNOW  22  19  89 NW10      29.56F FOG     WCI  11
WEST BEND      LGT SNOW  23  23 100 NW5       29.58S WCI  17
JUNEAU         LGT SNOW  20  17  89 NW5       29.62S WCI  13
$$

LSZ147-162-250900-
LAKE SUPERIOR

STATION/POSITION TIME  TEMP    WIND        PRES    WAVE
                       AIR SEA DIR/SP/G            HT/PER
                 (UTC) (F)     (DEG/KT/KT) (MB)    (FT/S)
DEVILS ISLAND    0700   18     340/ 20/ 24 1010.2F
PORT WING        0740   19     330/ 19/ 24 1010.2F
SAXON HARBOR     0730   21     340/ 21/ 23 1007.5F
$$

LMZ867-665-643>646-250900-
LAKE MICHIGAN

STATION/POSITION TIME  TEMP    WIND        PRES    WAVE
                       AIR SEA DIR/SP/G            HT/PER
                 (UTC) (F)     (DEG/KT/KT) (MB)    (FT/S)
CHAMBERS ISLAND  0640   24     310/  3/  4 1000.3S
NORTHPORT PIER   0740   26     330/  3/  4  999.0F
SISTER BAY       0650   26        CALM       N/A
KEWAUNEE LAKESHO 0730   23     330/ 10/ 15 1000.0S
SHEBOYGAN LAKESH 0700   24     300/  6/  8 1001.7R
PORT WASHINGTON  0740   25     300/  6/ 14 1002.7S
MILWAUKEE LAKESH 0730   26     300/ 12/ 15   N/A
KENOSHA   LAKESH 0700   29     300/ 10/ 15 1002.4
$$

TC  - TEMPERATURE IN CELSIUS
VSB - VISIBILITY IN STATUTE MILES
WCI - WIND CHILL INDEX
HX  - HEAT INDEX





USA.gov is the U.S. government's official web portal to all federal, state and local government web resources and services.